Location: Krakow
(50.0830°N, 19.9170°E)
Time: 17:00:07
(UTC+02:00)

Courier 1B - Pass Details

Date: 19 March 2026
Orbit: 962 x 1209 km, 28.3° (Epoch: 19 April)

Event Time Altitude Azimuth Distance (km) Brightness Sun altitude
Rises 09:05:41 0° 227° (SW) 3,997 10.7 28.7°
Reaches altitude 10° 09:10:52 10° 197° (SSW) 2,974 10.5 29.3°
Maximum altitude 09:13:10 12° 179° (S) 2,820 10.7 29.6°
Drops below altitude 10° 09:15:26 10° 160° (SSE) 2,914 11.2 29.8°
Sets 09:20:21 0° 130° (SE) 3,803 11.8 30.4°
